Home   Weather   43°43'N, 70°17'W   Past weeks
Flag for USA

Past Weather in 43°43'N, 70°17'W, USA — Yesterday and Last 2 Weeks

Now
75 °F

Partly sunny.


Feels Like: 77 °F
Forecast: 73 / 64 °F
Wind: 9 mph from South

Location: Portland - Portland International Jetport

Current Time: Jul 16, 2019 at 7:03:29 pm

Latest Report: Jul 16, 2019 at 5:51 pm


Visibility: 10 mi

Pressure: 29.94 "Hg

Humidity: 62%

Dew Point: 61 °F

Location of 43°43'N, 70°17'WLocation

Past Weather in 43°43'N, 70°17'W — Graph

°F

43°43'N, 70°17'W Temperature Yesterday

Maximum temperature yesterday: 82 °F (at 2:51 pm)
Minimum temperature yesterday: 60 °F (at 4:51 am)
Average temperature yesterday: 73 °F

High & Low Weather Summary for the Past Weeks

 TemperatureHumidityPressure
High90 °F (Jul 6, 11:51 am)97% (Jul 11, 5:51 pm)30.14 "Hg (Jul 11, 5:51 pm)
Low59 °F (Jul 9, 2:51 am)32% (Jul 9, 1:51 pm)29.65 "Hg (Jul 2, 4:51 pm)
Average72 °F67%29.90 "Hg
* Reported Jul 1 5:51 pm — Jul 16 5:51 pm, 43°43'N, 70°17'W. Weather by CustomWeather, © 2019

Note: Actual official high and low records may vary slightly from our data, if they occured in-between our weather recording intervals... More about our weather records

Advertising

43°43'N, 70°17'W Weather History for the Previous 24 Hours

Scroll right to see more
 ConditionsComfort  
Time TempWeatherWind HumidityBarometerVisibility
5:51 pm
Tue, Jul 16
75 °FPartly sunny.9 mph62%29.94 "Hg10 mi
4:51 pm76 °FScattered clouds.12 mph60%29.96 "Hg10 mi
3:51 pm79 °FScattered clouds.12 mph54%29.97 "Hg10 mi
2:51 pm79 °FPassing clouds.12 mph52%29.98 "Hg10 mi
1:51 pm79 °FPassing clouds.13 mph48%29.99 "Hg10 mi
12:51 pm79 °FPassing clouds.9 mph48%30.01 "Hg10 mi
11:51 am79 °FPassing clouds.9 mph50%30.03 "Hg10 mi
10:51 am79 °FPassing clouds.8 mph50%30.04 "Hg10 mi
9:51 am78 °FPassing clouds.5 mph48%30.04 "Hg10 mi
8:51 am75 °FPassing clouds.No wind58%30.06 "Hg10 mi
7:51 am69 °FPassing clouds.5 mph68%30.06 "Hg10 mi
6:51 am64 °FScattered clouds.5 mph78%30.06 "Hg10 mi
5:51 am61 °FScattered clouds.3 mph81%30.03 "Hg10 mi
4:51 am61 °FPassing clouds.3 mph81%30.02 "Hg10 mi
3:51 am61 °FClear.3 mph81%30.01 "Hg10 mi
2:51 am64 °FClear.3 mph75%30.01 "Hg10 mi
1:51 am65 °FClear.3 mph73%30.03 "Hg10 mi
12:51 am68 °FClear.5 mph63%30.02 "Hg10 mi
11:51 pm
Mon, Jul 15
70 °FClear.6 mph59%30.01 "Hg10 mi
10:51 pm72 °FClear.9 mph53%30.01 "Hg10 mi
9:51 pm72 °FClear.7 mph53%30.00 "Hg10 mi
8:51 pm74 °FClear.7 mph50%29.98 "Hg10 mi
7:51 pm76 °FSunny.6 mph47%29.97 "Hg10 mi
Weather by CustomWeather, © 2019

See weather overview

LIVE PARTIAL LUNAR ECLIPSE – Watch the eclipse as it happens